Weather History for Meeker, CO

Change the Weather History Date:

Monday, February 18, 2013

  Actual Average Record
Temperature  
Mean Temperature 20 °F 26 °F  
Max Temperature 31 °F 39 °F 52 °F (2004)
Min Temperature 8 °F 13 °F 0 °F (2008)
Degree Days  
Heating Degree Days 45 39  
Month to date heating degree days 789 750  
Since 1 July heating degree days 5527 5431  
Cooling Degree Days 0 0  
Month to date cooling degree days 0 0  
Year to date cooling degree days 0 0  
Moisture  
Dew Point 9 °F    
Average Humidity 60    
Maximum Humidity 80    
Minimum Humidity 39    
Precipitation  
Precipitation T in 0.04 in 0.14 in (2002)
Month to date precipitation 0.19 0.63  
Year to date precipitation 0.88 1.50  
Sea Level Pressure  
Sea Level Pressure 30.17 in    
Wind  
Wind Speed 2 mph (ENE)    
Max Wind Speed 8 mph    
Max Gust Speed 10 mph    
Visibility 10 miles    
Events      
T = Trace of Precipitation, MM = Missing Value Source: NWS Daily Summary

Daily Weather History Graph

Daily Weather History Graph

Search for Another Location

Airport:

Trip Planner

Search our weather history database for the weather conditions in past years. The results will help you decide how hot, cold, wet, or windy it might be!

Date:

Astronomy

Feb. 18, 2013 Rise Set
Actual Time 7:00 AM MST 5:51 PM MST
Civil Twilight 6:32 AM MST 6:18 PM MST
Nautical Twilight 6:00 AM MST 6:50 PM MST
Astronomical Twilight 5:29 AM MST 7:21 PM MST
Moon 11:39 AM MST (2/18) 1:42 AM MST (2/18)
Length of Visible Light 11h 46m
Length of Day
10h 51m
First Quarter, 59% of the Moon is Illuminated
Feb 18
First Quarter
Feb 25
Full
Mar 4
Last Quarter
Mar 11
New
Mar 19
First Quarter

Hourly Weather History & Observations

Time (MST) Temp. Windchill Dew Point Humidity Pressure Visibility Wind Dir Wind Speed Gust Speed Precip Events Conditions
12:53 AM 14.0 °F - 9.0 °F 80% 29.99 in 10.0 mi Calm Calm - N/A   Partly Cloudy
2:53 AM 15.1 °F - 10.0 °F 80% 30.01 in 10.0 mi Calm Calm - N/A   Overcast
3:53 AM 16.0 °F 8.8 °F 10.0 °F 77% 30.03 in 10.0 mi WNW 4.6 mph - N/A   Overcast
5:53 AM 18.0 °F - 12.9 °F 81% 30.10 in 10.0 mi Calm Calm - 0.00 in   Overcast
7:53 AM 17.1 °F 11.7 °F 12.9 °F 84% 30.17 in 10.0 mi ENE 3.5 mph - 0.00 in   Overcast
8:53 AM 18.0 °F - 12.9 °F 81% 30.19 in 10.0 mi Calm Calm - N/A   Partly Cloudy
9:53 AM 23.0 °F 18.4 °F 15.1 °F 72% 30.18 in 10.0 mi North 3.5 mph - N/A   Mostly Cloudy
10:53 AM 24.1 °F 19.7 °F 12.9 °F 62% 30.20 in 10.0 mi SSE 3.5 mph - N/A   Clear
11:53 AM 25.0 °F 19.3 °F 10.9 °F 55% 30.22 in 10.0 mi SE 4.6 mph - N/A   Clear
12:53 PM 27.0 °F 23.0 °F 9.0 °F 47% 30.19 in 10.0 mi SSE 3.5 mph - N/A   Clear
1:53 PM 28.0 °F - 8.1 °F 43% 30.19 in 10.0 mi Calm Calm - N/A   Clear
2:53 PM 28.9 °F 23.9 °F 8.1 °F 41% 30.17 in 10.0 mi SE 4.6 mph - N/A   Clear
3:53 PM 30.0 °F 25.2 °F 8.1 °F 40% 30.16 in 10.0 mi Variable 4.6 mph - N/A   Clear
5:53 PM 21.9 °F - 8.1 °F 55% 30.19 in 10.0 mi Calm Calm - N/A   Clear
6:53 PM 12.9 °F 6.9 °F 6.1 °F 74% 30.24 in 10.0 mi East 3.5 mph - N/A   Clear
7:53 PM 12.0 °F 5.9 °F 5.0 °F 73% 30.25 in 10.0 mi NNE 3.5 mph - N/A   Clear
8:53 PM 10.9 °F - 3.9 °F 73% 30.25 in 10.0 mi Calm Calm - N/A   Clear
9:53 PM 10.9 °F - 3.9 °F 73% 30.22 in 10.0 mi Calm Calm - N/A   Clear
10:53 PM 10.9 °F 4.7 °F 3.0 °F 70% 30.19 in 10.0 mi NNE 3.5 mph - N/A   Clear
11:53 PM 14.0 °F 3.9 °F 3.9 °F 64% 30.17 in 10.0 mi NE 6.9 mph - N/A   Clear